TimeCST,TemperatureF,Dew PointF,Humidity,Sea Level PressureIn,VisibilityMPH,Wind Direction,Wind SpeedMPH,Gust SpeedMPH,PrecipitationIn,Events,Conditions,WindDirDegrees,DateUTC
12:55 AM,28.0,24.1,85,30.10,10.0,NNE,6.9,-,N/A,,Clear,30,2012-11-26 06:55:00
1:55 AM,28.0,24.1,85,30.11,9.0,NE,6.9,-,N/A,,Clear,40,2012-11-26 07:55:00
2:55 AM,28.0,24.1,85,30.12,8.0,ENE,5.8,-,N/A,,Clear,60,2012-11-26 08:55:00
3:55 AM,28.9,25.0,85,30.14,9.0,NE,4.6,-,N/A,,Clear,50,2012-11-26 09:55:00
4:55 AM,30.0,25.0,82,30.16,9.0,ENE,5.8,-,N/A,,Clear,60,2012-11-26 10:55:00
5:55 AM,30.0,25.0,82,30.18,9.0,NE,8.1,-,N/A,,Clear,40,2012-11-26 11:55:00
6:55 AM,28.9,24.1,82,30.24,9.0,North,6.9,-,N/A,,Clear,10,2012-11-26 12:55:00
7:55 AM,30.0,24.1,79,30.28,8.0,NNE,5.8,-,N/A,,Clear,20,2012-11-26 13:55:00
8:55 AM,34.0,26.1,73,30.33,10.0,NNE,16.1,19.6,N/A,,Mostly Cloudy,20,2012-11-26 14:55:00
9:55 AM,35.1,25.0,67,30.37,10.0,NE,15.0,-,N/A,,Overcast,40,2012-11-26 15:55:00
10:55 AM,36.0,24.1,62,30.40,10.0,NE,17.3,24.2,N/A,,Mostly Cloudy,40,2012-11-26 16:55:00
11:55 AM,37.0,24.1,59,30.41,10.0,NE,13.8,-,N/A,,Mostly Cloudy,40,2012-11-26 17:55:00
12:55 PM,37.9,26.1,62,30.41,10.0,NNE,17.3,-,N/A,,Mostly Cloudy,30,2012-11-26 18:55:00
1:55 PM,36.0,26.1,67,30.41,10.0,North,17.3,23.0,N/A,,Overcast,10,2012-11-26 19:55:00
2:55 PM,37.0,26.1,65,30.41,10.0,NNE,13.8,-,N/A,,Overcast,30,2012-11-26 20:55:00
3:55 PM,34.0,23.0,64,30.43,10.0,NNE,12.7,-,N/A,,Mostly Cloudy,20,2012-11-26 21:55:00
4:10 PM,33.8,23.0,65,30.39,10.0,North,11.5,-,N/A,,Scattered Clouds,10,2012-11-26 22:10:00
4:55 PM,32.0,21.0,64,30.45,10.0,NNE,10.4,-,N/A,,Clear,20,2012-11-26 22:55:00
5:55 PM,28.0,18.0,66,30.46,10.0,North,6.9,-,N/A,,Clear,10,2012-11-26 23:55:00
6:55 PM,26.1,16.0,66,30.48,10.0,North,5.8,-,N/A,,Clear,360,2012-11-27 00:55:00
7:55 PM,24.1,14.0,65,30.50,10.0,North,6.9,-,N/A,,Clear,350,2012-11-27 01:55:00
8:55 PM,21.9,12.9,68,30.50,10.0,North,4.6,-,N/A,,Clear,360,2012-11-27 02:55:00
9:55 PM,21.0,12.9,71,30.51,10.0,North,3.5,-,N/A,,Clear,350,2012-11-27 03:55:00
10:55 PM,19.9,12.9,74,30.51,10.0,West,3.5,-,N/A,,Clear,260,2012-11-27 04:55:00
11:55 PM,18.0,12.0,78,30.51,10.0,WNW,3.5,-,N/A,,Clear,290,2012-11-27 05:55:00